Time,TemperatureF,DewpointF,PressureIn,WindDirection,WindDirectionDegrees,WindSpeedMPH,WindSpeedGustMPH,Humidity,HourlyPrecipIn,Conditions,Clouds,dailyrainin,SoftwareType,DateUTC
2013-12-07 00:01:00,52.5,52.5,28.66,NE,34,0.0,0.0,100,0.05,,BKN0480,0.57,VWS V14.01,2013-12-07 05:01:00,
2013-12-07 00:02:00,52.3,52.3,28.66,NNE,26,0.0,0.0,100,0.05,,BKN0480,0.57,VWS V14.01,2013-12-07 05:02:00,
2013-12-07 00:07:00,51.9,51.9,28.67,NNE,30,0.0,0.0,100,0.05,,BKN0480,0.00,VWS V14.01,2013-12-07 05:07:00,
2013-12-07 00:12:00,51.4,51.4,28.67,NNE,31,0.0,0.0,100,0.05,,BKN0480,0.00,VWS V14.01,2013-12-07 05:12:00,
2013-12-07 00:17:00,51.1,51.1,28.67,NNE,30,0.0,0.0,100,0.04,,BKN0480,0.00,VWS V14.01,2013-12-07 05:17:00,
2013-12-07 00:22:00,51.0,51.0,28.67,NNE,32,0.0,0.0,100,0.03,,BKN0480,0.00,VWS V14.01,2013-12-07 05:22:00,
2013-12-07 00:27:00,50.8,50.8,28.67,NNE,32,0.0,0.0,100,0.03,,BKN0480,0.01,VWS V14.01,2013-12-07 05:27:00,
2013-12-07 00:32:00,50.7,50.7,28.67,NNE,29,0.0,0.0,100,0.02,,BKN0480,0.01,VWS V14.01,2013-12-07 05:32:00,
2013-12-07 00:37:00,50.4,50.4,28.68,NNE,32,0.0,0.0,100,0.02,,BKN0480,0.01,VWS V14.01,2013-12-07 05:37:00,
2013-12-07 00:42:00,50.2,50.2,28.68,NNE,29,0.0,0.0,100,0.01,,BKN0480,0.01,VWS V14.01,2013-12-07 05:42:00,
2013-12-07 00:47:00,50.1,50.1,28.68,NNE,31,0.0,0.0,100,0.01,,BKN0480,0.01,VWS V14.01,2013-12-07 05:47:00,
2013-12-07 00:52:00,49.9,49.9,28.68,NNE,30,0.0,0.0,100,0.01,,BKN0480,0.01,VWS V14.01,2013-12-07 05:52:00,
2013-12-07 00:57:00,49.8,49.8,28.68,NNE,30,0.0,0.0,100,0.01,,BKN0480,0.01,VWS V14.01,2013-12-07 05:57:00,
2013-12-07 01:02:00,49.5,49.5,28.68,NE,34,0.0,0.0,100,0.01,,BKN0480,0.01,VWS V14.01,2013-12-07 06:02:00,
2013-12-07 01:07:00,48.6,48.6,28.68,NNE,32,0.0,0.0,100,0.01,,BKN0480,0.01,VWS V14.01,2013-12-07 06:07:00,
2013-12-07 01:12:00,48.0,48.0,28.68,NNE,32,0.0,0.0,100,0.01,,BKN0480,0.01,VWS V14.01,2013-12-07 06:12:00,
2013-12-07 01:17:00,47.4,47.4,28.68,NE,36,0.0,0.0,100,0.01,,BKN0480,0.01,VWS V14.01,2013-12-07 06:17:00,
2013-12-07 01:22:00,47.1,47.1,28.69,NNE,31,0.0,0.0,100,0.01,,BKN0480,0.01,VWS V14.01,2013-12-07 06:22:00,
2013-12-07 01:27:00,47.1,47.1,28.69,NNE,31,0.0,0.0,100,0.01,,BKN0480,0.01,VWS V14.01,2013-12-07 06:27:00,
2013-12-07 01:32:00,47.1,47.1,28.69,NNE,31,0.0,0.0,100,0.00,,BKN0480,0.01,VWS V14.01,2013-12-07 06:32:00,
2013-12-07 01:37:00,47.1,47.1,28.71,NNE,31,0.0,0.0,100,0.00,,BKN0480,0.01,VWS V14.01,2013-12-07 06:37:00,
2013-12-07 01:42:00,47.1,47.1,28.71,NNE,31,0.0,0.0,100,0.00,,BKN0480,0.01,VWS V14.01,2013-12-07 06:42:00,
2013-12-07 01:47:00,47.1,47.1,28.71,NNE,31,0.0,0.0,100,0.00,,BKN0480,0.01,VWS V14.01,2013-12-07 06:47:00,
2013-12-07 01:52:00,47.1,47.1,28.70,NNE,31,0.0,0.0,100,0.00,,BKN0480,0.01,VWS V14.01,2013-12-07 06:52:00,
2013-12-07 01:57:00,47.1,47.1,28.70,NNE,31,0.0,0.0,100,0.00,,BKN0480,0.01,VWS V14.01,2013-12-07 06:57:00,
2013-12-07 02:02:00,47.1,47.1,28.70,NNE,31,0.0,0.0,100,0.00,,BKN0480,0.01,VWS V14.01,2013-12-07 07:02:00,
2013-12-07 02:07:00,47.1,47.1,28.71,NNE,31,0.0,0.0,100,0.00,,BKN0480,0.01,VWS V14.01,2013-12-07 07:07:00,
2013-12-07 02:12:00,47.1,47.1,28.71,NNE,31,0.0,0.0,100,0.00,,BKN0480,0.01,VWS V14.01,2013-12-07 07:12:00,
2013-12-07 02:17:00,47.1,47.1,28.71,NNE,31,0.0,0.0,100,0.00,,BKN0480,0.01,VWS V14.01,2013-12-07 07:17:00,
2013-12-07 02:22:00,47.1,47.1,28.71,NNE,31,0.0,0.0,100,0.00,,BKN0480,0.01,VWS V14.01,2013-12-07 07:22:00,
2013-12-07 02:27:00,47.1,47.1,28.71,NNE,31,0.0,0.0,100,0.00,,BKN0480,0.01,VWS V14.01,2013-12-07 07:27:00,
2013-12-07 02:32:00,47.1,47.1,28.71,NNE,31,0.0,0.0,100,0.00,,BKN0480,0.01,VWS V14.01,2013-12-07 07:32:00,
2013-12-07 02:37:00,47.1,47.1,28.71,NNE,31,0.0,0.0,100,0.00,,BKN0480,0.01,VWS V14.01,2013-12-07 07:37:00,
2013-12-07 02:42:00,47.1,47.1,28.71,NNE,31,0.0,0.0,100,0.00,,BKN0480,0.01,VWS V14.01,2013-12-07 07:42:00,
2013-12-07 02:47:00,47.1,47.1,28.71,NNE,31,0.0,0.0,100,0.00,,BKN0480,0.01,VWS V14.01,2013-12-07 07:47:00,
2013-12-07 02:52:00,47.1,47.1,28.71,NNE,31,0.0,0.0,100,0.00,,BKN0480,0.01,VWS V14.01,2013-12-07 07:52:00,
2013-12-07 02:57:00,47.1,47.1,28.71,NNE,31,0.0,0.0,100,0.00,,BKN0480,0.01,VWS V14.01,2013-12-07 07:57:00,
2013-12-07 03:02:00,47.1,47.1,28.71,NNE,31,0.0,0.0,100,0.00,,BKN0480,0.01,VWS V14.01,2013-12-07 08:02:00,
2013-12-07 03:07:00,47.1,47.1,28.71,NNE,31,0.0,0.0,100,0.00,,BKN0480,0.01,VWS V14.01,2013-12-07 08:07:00,
2013-12-07 03:12:00,47.1,47.1,28.71,NNE,31,0.0,0.0,100,0.00,,BKN0480,0.01,VWS V14.01,2013-12-07 08:12:00,
2013-12-07 03:17:00,47.1,47.1,28.71,NNE,31,0.0,0.0,100,0.00,,BKN0480,0.01,VWS V14.01,2013-12-07 08:17:00,
2013-12-07 03:22:00,47.1,47.1,28.72,NNE,31,0.0,0.0,100,0.00,,BKN0480,0.01,VWS V14.01,2013-12-07 08:22:00,
2013-12-07 03:27:00,47.1,47.1,28.72,NNE,31,0.0,0.0,100,0.00,,BKN0480,0.01,VWS V14.01,2013-12-07 08:27:00,
2013-12-07 03:32:00,47.1,47.1,28.72,NNE,31,0.0,0.0,100,0.00,,BKN0480,0.01,VWS V14.01,2013-12-07 08:32:00,
2013-12-07 03:37:00,47.1,47.1,28.72,NNE,31,0.0,0.0,100,0.00,,BKN0480,0.01,VWS V14.01,2013-12-07 08:37:00,
2013-12-07 03:42:00,47.1,47.1,28.72,NNE,31,0.0,0.0,100,0.00,,BKN0480,0.01,VWS V14.01,2013-12-07 08:42:00,
2013-12-07 03:47:00,47.1,47.1,28.72,NNE,31,0.0,0.0,100,0.00,,BKN0480,0.01,VWS V14.01,2013-12-07 08:47:00,
2013-12-07 03:52:00,47.1,47.1,28.72,NNE,31,0.0,0.0,100,0.00,,BKN0480,0.01,VWS V14.01,2013-12-07 08:52:00,
2013-12-07 03:57:00,47.1,47.1,28.72,NNE,31,0.0,0.0,100,0.00,,BKN0480,0.01,VWS V14.01,2013-12-07 08:57:00,
2013-12-07 04:02:00,47.1,47.1,28.72,NNE,31,0.0,0.0,100,0.00,,BKN0480,0.01,VWS V14.01,2013-12-07 09:02:00,
2013-12-07 04:07:00,47.1,47.1,28.73,NNE,31,0.0,0.0,100,0.00,,BKN0480,0.01,VWS V14.01,2013-12-07 09:07:00,
2013-12-07 04:12:00,47.1,47.1,28.73,NNE,31,0.0,0.0,100,0.00,,BKN0480,0.01,VWS V14.01,2013-12-07 09:12:00,
2013-12-07 04:17:00,47.1,47.1,28.73,NNE,31,0.0,0.0,100,0.00,,BKN0480,0.01,VWS V14.01,2013-12-07 09:17:00,
2013-12-07 04:22:00,47.1,47.1,28.73,NNE,31,0.0,0.0,100,0.00,,BKN0480,0.01,VWS V14.01,2013-12-07 09:22:00,
2013-12-07 04:27:00,47.1,47.1,28.73,NNE,31,0.0,0.0,100,0.00,,BKN0480,0.01,VWS V14.01,2013-12-07 09:27:00,
2013-12-07 04:32:00,47.1,47.1,28.73,NNE,31,0.0,0.0,100,0.00,,BKN0480,0.01,VWS V14.01,2013-12-07 09:32:00,
2013-12-07 04:37:00,47.1,47.1,28.73,NNE,31,0.0,0.0,100,0.00,,BKN0480,0.01,VWS V14.01,2013-12-07 09:37:00,
2013-12-07 04:42:00,47.1,47.1,28.73,NNE,31,0.0,0.0,100,0.00,,BKN0480,0.01,VWS V14.01,2013-12-07 09:42:00,
2013-12-07 04:47:00,47.1,47.1,28.73,NNE,31,0.0,0.0,100,0.00,,BKN0480,0.01,VWS V14.01,2013-12-07 09:47:00,
2013-12-07 04:52:00,47.1,47.1,28.74,NNE,31,0.0,0.0,100,0.00,,BKN0480,0.01,VWS V14.01,2013-12-07 09:52:00,
2013-12-07 04:57:00,47.1,47.1,28.74,NNE,31,0.0,0.0,100,0.00,,BKN0480,0.01,VWS V14.01,2013-12-07 09:57:00,
2013-12-07 05:02:00,47.1,47.1,28.74,NNE,31,0.0,0.0,100,0.00,,BKN0480,0.01,VWS V14.01,2013-12-07 10:02:00,
2013-12-07 05:07:00,47.1,47.1,28.75,NNE,31,0.0,0.0,100,0.00,,BKN0480,0.01,VWS V14.01,2013-12-07 10:07:00,
2013-12-07 05:12:00,47.1,47.1,28.75,NNE,31,0.0,0.0,100,0.00,,BKN0480,0.01,VWS V14.01,2013-12-07 10:12:00,
2013-12-07 05:17:00,47.1,47.1,28.75,NNE,31,0.0,0.0,100,0.00,,BKN0480,0.01,VWS V14.01,2013-12-07 10:17:00,
2013-12-07 05:22:00,47.1,47.1,28.75,NNE,31,0.0,0.0,100,0.00,,BKN0480,0.01,VWS V14.01,2013-12-07 10:22:00,
2013-12-07 05:27:00,47.1,47.1,28.75,NNE,31,0.0,0.0,100,0.00,,BKN0480,0.01,VWS V14.01,2013-12-07 10:27:00,
2013-12-07 05:32:00,47.1,47.1,28.75,NNE,31,0.0,0.0,100,0.00,,BKN0480,0.01,VWS V14.01,2013-12-07 10:32:00,
2013-12-07 05:37:00,47.1,47.1,28.75,NNE,31,0.0,0.0,100,0.00,,BKN0480,0.01,VWS V14.01,2013-12-07 10:37:00,
2013-12-07 05:42:00,47.1,47.1,28.75,NNE,31,0.0,0.0,100,0.00,,BKN0480,0.01,VWS V14.01,2013-12-07 10:42:00,
2013-12-07 05:47:00,47.1,47.1,28.75,NNE,31,0.0,0.0,100,0.00,,BKN0480,0.01,VWS V14.01,2013-12-07 10:47:00,
2013-12-07 05:52:00,47.1,47.1,28.77,NNE,31,0.0,0.0,100,0.00,,BKN0480,0.01,VWS V14.01,2013-12-07 10:52:00,
2013-12-07 05:57:00,47.1,47.1,28.77,NNE,31,0.0,0.0,100,0.00,,BKN0480,0.01,VWS V14.01,2013-12-07 10:57:00,
2013-12-07 06:02:00,47.1,47.1,28.77,NNE,31,0.0,0.0,100,0.00,,BKN0480,0.01,VWS V14.01,2013-12-07 11:02:00,
2013-12-07 06:07:00,47.1,47.1,28.77,NNE,31,0.0,0.0,100,0.00,,BKN0480,0.01,VWS V14.01,2013-12-07 11:07:00,
2013-12-07 06:12:00,47.1,47.1,28.77,NNE,31,0.0,0.0,100,0.00,,BKN0480,0.01,VWS V14.01,2013-12-07 11:12:00,
2013-12-07 06:17:00,47.1,47.1,28.77,NNE,31,0.0,0.0,100,0.00,,BKN0480,0.01,VWS V14.01,2013-12-07 11:17:00,
2013-12-07 06:22:00,47.1,47.1,28.77,NNE,31,0.0,0.0,100,0.00,,BKN0480,0.01,VWS V14.01,2013-12-07 11:22:00,
2013-12-07 06:27:00,47.1,47.1,28.77,NNE,31,0.0,0.0,100,0.00,,BKN0480,0.01,VWS V14.01,2013-12-07 11:27:00,
2013-12-07 06:32:00,47.1,47.1,28.77,NNE,31,0.0,0.0,100,0.00,,BKN0480,0.01,VWS V14.01,2013-12-07 11:32:00,
2013-12-07 06:37:00,47.1,47.1,28.78,NNE,31,0.0,0.0,100,0.00,,BKN0480,0.01,VWS V14.01,2013-12-07 11:37:00,
2013-12-07 06:42:00,47.1,47.1,28.78,NNE,31,0.0,0.0,100,0.00,,BKN0480,0.01,VWS V14.01,2013-12-07 11:42:00,
2013-12-07 06:47:00,47.1,47.1,28.78,NNE,31,0.0,0.0,100,0.00,,BKN0480,0.01,VWS V14.01,2013-12-07 11:47:00,
2013-12-07 06:52:00,47.1,47.1,28.78,NNE,31,0.0,0.0,100,0.00,,BKN0480,0.01,VWS V14.01,2013-12-07 11:52:00,
2013-12-07 06:57:00,47.1,47.1,28.78,NNE,31,0.0,0.0,100,0.00,,BKN0480,0.01,VWS V14.01,2013-12-07 11:57:00,
2013-12-07 07:02:00,47.1,47.1,28.78,NNE,31,0.0,0.0,100,0.00,,BKN0480,0.01,VWS V14.01,2013-12-07 12:02:00,
2013-12-07 12:35:00,47.6,42.4,28.85,North,0,0.0,0.0,82,0.00,,,0.01,VWS V14.01,2013-12-07 17:35:00,
2013-12-07 12:48:00,47.9,42.7,28.85,NNE,28,0.0,0.0,82,0.00,,,0.01,VWS V14.01,2013-12-07 17:48:00,
2013-12-07 12:53:00,47.7,42.2,28.85,NNE,30,0.0,0.0,81,0.00,,,0.01,VWS V14.01,2013-12-07 17:53:00,
2013-12-07 12:58:00,47.6,42.1,28.85,NNE,26,0.0,0.0,81,0.00,,,0.01,VWS V14.01,2013-12-07 17:58:00,
2013-12-07 13:03:00,47.3,42.1,28.84,NNE,23,0.0,0.0,82,0.00,,OVC008,0.01,VWS V14.01,2013-12-07 18:03:00,
2013-12-07 13:08:00,47.6,42.4,28.84,NE,35,0.0,0.0,82,0.00,,OVC008,0.01,VWS V14.01,2013-12-07 18:08:00,
2013-12-07 13:13:00,47.7,42.2,28.84,NNE,27,0.0,0.0,81,0.00,,OVC008,0.01,VWS V14.01,2013-12-07 18:13:00,
2013-12-07 13:18:00,47.7,42.5,28.83,NNE,29,0.0,0.0,82,0.00,,OVC008,0.01,VWS V14.01,2013-12-07 18:18:00,
2013-12-07 13:23:00,47.9,42.4,28.83,NNE,32,0.0,0.0,81,0.00,,OVC008,0.01,VWS V14.01,2013-12-07 18:23:00,
2013-12-07 13:28:00,48.2,42.7,28.83,NNE,28,0.0,0.0,81,0.00,,OVC008,0.01,VWS V14.01,2013-12-07 18:28:00,
2013-12-07 13:33:00,48.2,42.7,28.83,NNE,28,0.0,0.0,81,0.00,,OVC008,0.01,VWS V14.01,2013-12-07 18:33:00,
2013-12-07 13:38:00,48.2,43.0,28.83,NNE,30,0.0,0.0,82,0.00,,OVC008,0.01,VWS V14.01,2013-12-07 18:38:00,
2013-12-07 13:43:00,48.3,42.4,28.83,NNE,32,0.0,0.0,80,0.00,,OVC008,0.01,VWS V14.01,2013-12-07 18:43:00,
2013-12-07 13:48:00,48.6,42.7,28.82,NNE,30,0.0,0.0,80,0.00,,OVC008,0.01,VWS V14.01,2013-12-07 18:48:00,
2013-12-07 13:53:00,48.8,42.9,28.82,NNE,23,0.0,0.0,80,0.00,,OVC008,0.01,VWS V14.01,2013-12-07 18:53:00,
2013-12-07 13:58:00,48.8,42.9,28.82,NE,34,0.0,0.0,80,0.00,,OVC008,0.01,VWS V14.01,2013-12-07 18:58:00,
2013-12-07 14:03:00,49.1,43.2,28.82,NNE,32,0.0,0.0,80,0.00,,OVC009,0.01,VWS V14.01,2013-12-07 19:03:00,
2013-12-07 14:45:00,49.6,43.4,28.82,North,0,0.0,0.0,79,0.00,,OVC009,0.01,VWS V14.01,2013-12-07 19:45:00,
2013-12-07 14:57:00,49.5,43.3,28.82,NE,34,0.0,0.0,79,0.00,,OVC009,0.01,VWS V14.01,2013-12-07 19:57:00,
2013-12-07 15:02:00,49.5,43.6,28.82,NNE,31,0.0,0.0,80,0.00,,BKN010,0.01,VWS V14.01,2013-12-07 20:02:00,
2013-12-07 15:07:00,49.5,43.3,28.82,North,11,0.0,0.0,79,0.00,,BKN010,0.01,VWS V14.01,2013-12-07 20:07:00,
2013-12-07 15:12:00,49.2,43.3,28.82,NNE,27,0.0,0.0,80,0.00,,BKN010,0.01,VWS V14.01,2013-12-07 20:12:00,
2013-12-07 15:17:00,48.8,42.9,28.82,NNE,29,0.0,0.0,80,0.00,,BKN010,0.01,VWS V14.01,2013-12-07 20:17:00,
2013-12-07 15:22:00,48.5,43.0,28.82,NNE,27,0.0,0.0,81,0.00,,BKN010,0.01,VWS V14.01,2013-12-07 20:22:00,
2013-12-07 15:27:00,48.3,42.8,28.82,NNE,31,0.0,0.0,81,0.00,,BKN010,0.01,VWS V14.01,2013-12-07 20:27:00,
2013-12-07 15:32:00,48.2,42.7,28.82,NNE,33,0.0,0.0,81,0.00,,BKN010,0.01,VWS V14.01,2013-12-07 20:32:00,
2013-12-07 15:37:00,48.2,43.0,28.83,NNE,32,0.0,0.0,82,0.00,,BKN010,0.01,VWS V14.01,2013-12-07 20:37:00,
2013-12-07 15:42:00,48.2,43.0,28.83,NNE,29,0.0,0.0,82,0.00,,BKN010,0.01,VWS V14.01,2013-12-07 20:42:00,
2013-12-07 15:47:00,48.0,42.5,28.83,NNE,28,0.0,0.0,81,0.00,,BKN010,0.01,VWS V14.01,2013-12-07 20:47:00,
2013-12-07 15:52:00,47.7,42.5,28.83,NNE,32,0.0,0.0,82,0.00,,BKN010,0.01,VWS V14.01,2013-12-07 20:52:00,
2013-12-07 15:57:00,47.4,42.2,28.83,NNE,28,0.0,0.0,82,0.00,,BKN010,0.01,VWS V14.01,2013-12-07 20:57:00,
2013-12-07 16:02:00,47.4,42.2,28.83,NNE,33,0.0,0.0,82,0.00,,OVC075,0.01,VWS V14.01,2013-12-07 21:02:00,
2013-12-07 16:07:00,47.4,42.5,28.84,NNE,32,0.0,0.0,83,0.00,,OVC075,0.01,VWS V14.01,2013-12-07 21:07:00,
2013-12-07 16:12:00,47.1,41.9,28.84,NNE,32,0.0,0.0,82,0.00,,OVC075,0.01,VWS V14.01,2013-12-07 21:12:00,
2013-12-07 16:17:00,46.7,41.5,28.84,NNE,33,0.0,0.0,82,0.00,,OVC075,0.01,VWS V14.01,2013-12-07 21:17:00,
2013-12-07 16:22:00,46.4,41.5,28.84,NNE,32,0.0,0.0,83,0.00,,OVC075,0.01,VWS V14.01,2013-12-07 21:22:00,
2013-12-07 16:27:00,46.2,41.6,28.84,NNE,30,0.0,0.0,84,0.00,,OVC075,0.01,VWS V14.01,2013-12-07 21:27:00,
2013-12-07 16:32:00,46.0,41.4,28.84,NNE,31,0.0,0.0,84,0.00,,OVC075,0.01,VWS V14.01,2013-12-07 21:32:00,
2013-12-07 16:37:00,45.8,41.5,28.84,NNE,32,0.0,0.0,85,0.00,,OVC075,0.01,VWS V14.01,2013-12-07 21:37:00,
2013-12-07 16:42:00,45.5,41.3,28.84,NNE,32,0.0,0.0,85,0.00,,OVC075,0.01,VWS V14.01,2013-12-07 21:42:00,
2013-12-07 16:47:00,45.4,41.2,28.84,NNE,30,0.0,0.0,85,0.00,,OVC075,0.01,VWS V14.01,2013-12-07 21:47:00,
2013-12-07 16:52:00,45.2,41.3,28.84,NE,34,0.0,0.0,86,0.00,,OVC075,0.01,VWS V14.01,2013-12-07 21:52:00,
2013-12-07 16:57:00,44.9,41.0,28.84,NNE,30,0.0,0.0,86,0.00,,OVC075,0.01,VWS V14.01,2013-12-07 21:57:00,
2013-12-07 17:02:00,44.8,40.9,28.84,NNE,30,0.0,0.0,86,0.00,,OVC012,0.01,VWS V14.01,2013-12-07 22:02:00,
2013-12-07 17:07:00,44.6,41.0,28.84,NE,34,0.0,0.0,87,0.00,,OVC012,0.01,VWS V14.01,2013-12-07 22:07:00,
2013-12-07 17:12:00,44.5,40.9,28.84,NNE,30,0.0,0.0,87,0.00,,OVC012,0.01,VWS V14.01,2013-12-07 22:12:00,
2013-12-07 17:17:00,44.3,40.7,28.84,NE,36,0.0,0.0,87,0.00,,OVC012,0.01,VWS V14.01,2013-12-07 22:17:00,
2013-12-07 17:22:00,44.3,41.0,28.83,NNE,30,0.0,0.0,88,0.00,,OVC012,0.01,VWS V14.01,2013-12-07 22:22:00,
2013-12-07 17:27:00,44.1,40.8,28.83,NNE,30,0.0,0.0,88,0.00,,OVC012,0.01,VWS V14.01,2013-12-07 22:27:00,
2013-12-07 17:32:00,43.9,40.6,28.83,NNE,30,0.0,0.0,88,0.00,,OVC012,0.01,VWS V14.01,2013-12-07 22:32:00,
2013-12-07 17:37:00,43.8,40.8,28.84,NNE,29,0.0,0.0,89,0.00,,OVC012,0.01,VWS V14.01,2013-12-07 22:37:00,
2013-12-07 17:42:00,43.8,40.8,28.84,NNE,28,0.0,0.0,89,0.00,,OVC012,0.01,VWS V14.01,2013-12-07 22:42:00,
2013-12-07 17:47:00,43.6,40.6,28.84,NNE,30,0.0,0.0,89,0.00,,OVC012,0.01,VWS V14.01,2013-12-07 22:47:00,
2013-12-07 17:52:00,43.6,40.6,28.85,NNE,27,0.0,0.0,89,0.00,,OVC012,0.01,VWS V14.01,2013-12-07 22:52:00,
2013-12-07 17:57:00,43.5,40.5,28.85,NNE,30,0.0,0.0,89,0.00,,OVC012,0.01,VWS V14.01,2013-12-07 22:57:00,
2013-12-07 18:02:00,43.5,40.5,28.85,NNE,30,0.0,0.0,89,0.00,,OVC012,0.01,VWS V14.01,2013-12-07 23:02:00,
2013-12-07 18:07:00,43.5,40.8,28.85,NNE,28,0.0,0.0,90,0.00,,OVC012,0.01,VWS V14.01,2013-12-07 23:07:00,
2013-12-07 18:12:00,43.3,40.3,28.85,NNE,28,0.0,0.0,89,0.00,,OVC012,0.01,VWS V14.01,2013-12-07 23:12:00,
2013-12-07 18:17:00,43.3,40.3,28.85,NNE,28,0.0,0.0,89,0.00,,OVC012,0.01,VWS V14.01,2013-12-07 23:17:00,
2013-12-07 18:22:00,43.3,40.6,28.85,NNE,31,0.0,0.0,90,0.00,,OVC012,0.01,VWS V14.01,2013-12-07 23:22:00,
2013-12-07 18:27:00,43.3,40.3,28.85,NNE,31,0.0,0.0,89,0.00,,OVC012,0.01,VWS V14.01,2013-12-07 23:27:00,
2013-12-07 18:32:00,43.2,40.5,28.85,NNE,29,0.0,0.0,90,0.00,,OVC012,0.01,VWS V14.01,2013-12-07 23:32:00,
2013-12-07 18:37:00,43.2,40.5,28.86,NNE,32,0.0,0.0,90,0.00,,OVC012,0.01,VWS V14.01,2013-12-07 23:37:00,
2013-12-07 18:42:00,43.2,40.5,28.86,NNE,28,0.0,0.0,90,0.00,,OVC012,0.01,VWS V14.01,2013-12-07 23:42:00,
2013-12-07 18:47:00,43.2,40.5,28.86,NE,34,0.0,0.0,90,0.00,,OVC012,0.01,VWS V14.01,2013-12-07 23:47:00,
2013-12-07 18:52:00,43.1,40.4,28.86,NNE,33,0.0,0.0,90,0.00,,OVC012,0.01,VWS V14.01,2013-12-07 23:52:00,
2013-12-07 18:57:00,43.1,40.4,28.86,NNE,32,0.0,0.0,90,0.00,,OVC012,0.01,VWS V14.01,2013-12-07 23:57:00,
2013-12-07 19:02:00,43.1,40.4,28.86,NNE,32,0.0,0.0,90,0.00,,OVC013,0.01,VWS V14.01,2013-12-08 00:02:00,
2013-12-07 19:07:00,42.9,40.2,28.86,NNE,32,0.0,0.0,90,0.00,,OVC013,0.01,VWS V14.01,2013-12-08 00:07:00,
2013-12-07 19:12:00,42.9,40.2,28.86,NE,34,0.0,0.0,90,0.00,,OVC013,0.01,VWS V14.01,2013-12-08 00:12:00,
2013-12-07 19:17:00,42.9,40.5,28.86,NNE,32,0.0,0.0,91,0.00,,OVC013,0.01,VWS V14.01,2013-12-08 00:17:00,
2013-12-07 19:22:00,42.9,40.5,28.86,NNE,32,0.0,0.0,91,0.00,,OVC013,0.01,VWS V14.01,2013-12-08 00:22:00,
2013-12-07 19:27:00,42.9,40.5,28.86,NNE,32,0.0,0.0,91,0.00,,OVC013,0.01,VWS V14.01,2013-12-08 00:27:00,
2013-12-07 19:32:00,42.9,40.5,28.86,NNE,27,0.0,0.0,91,0.00,,OVC013,0.01,VWS V14.01,2013-12-08 00:32:00,
2013-12-07 19:37:00,42.9,40.5,28.86,NNE,27,0.0,0.0,91,0.00,,OVC013,0.01,VWS V14.01,2013-12-08 00:37:00,
2013-12-07 19:42:00,42.9,40.5,28.86,NNE,27,0.0,0.0,91,0.00,,OVC013,0.01,VWS V14.01,2013-12-08 00:42:00,
2013-12-07 19:47:00,42.9,40.5,28.86,NNE,27,0.0,0.0,91,0.00,,OVC013,0.01,VWS V14.01,2013-12-08 00:47:00,
2013-12-07 19:52:00,42.9,40.5,28.86,NNE,27,0.0,0.0,91,0.00,,OVC013,0.01,VWS V14.01,2013-12-08 00:52:00,
2013-12-07 19:57:00,42.9,40.7,28.86,NNE,27,0.0,0.0,92,0.00,,OVC013,0.01,VWS V14.01,2013-12-08 00:57:00,
2013-12-07 20:02:00,43.1,40.9,28.86,NNE,27,0.0,0.0,92,0.00,,OVC009,0.01,VWS V14.01,2013-12-08 01:02:00,
2013-12-07 20:07:00,43.1,40.9,28.86,NNE,27,0.0,0.0,92,0.00,,OVC009,0.01,VWS V14.01,2013-12-08 01:07:00,
2013-12-07 20:12:00,43.1,40.9,28.86,NNE,27,0.0,0.0,92,0.00,,OVC009,0.01,VWS V14.01,2013-12-08 01:12:00,
2013-12-07 20:17:00,43.1,40.9,28.86,NNE,27,0.0,0.0,92,0.00,,OVC009,0.01,VWS V14.01,2013-12-08 01:17:00,
2013-12-07 20:22:00,43.1,40.7,28.88,NNE,27,0.0,0.0,91,0.00,,OVC009,0.01,VWS V14.01,2013-12-08 01:22:00,
2013-12-07 20:27:00,42.9,40.5,28.88,NNE,27,0.0,0.0,91,0.00,,OVC009,0.01,VWS V14.01,2013-12-08 01:27:00,
2013-12-07 20:32:00,42.9,40.5,28.88,NNE,27,0.0,0.0,91,0.00,,OVC009,0.01,VWS V14.01,2013-12-08 01:32:00,
2013-12-07 20:37:00,42.9,40.5,28.89,NNE,27,0.0,0.0,91,0.00,,OVC009,0.01,VWS V14.01,2013-12-08 01:37:00,
2013-12-07 20:42:00,42.9,40.5,28.89,NNE,27,0.0,0.0,91,0.00,,OVC009,0.01,VWS V14.01,2013-12-08 01:42:00,
2013-12-07 20:47:00,42.9,40.7,28.89,NNE,27,0.0,0.0,92,0.00,,OVC009,0.01,VWS V14.01,2013-12-08 01:47:00,
2013-12-07 20:52:00,42.9,40.7,28.89,NNE,27,0.0,0.0,92,0.00,,OVC009,0.01,VWS V14.01,2013-12-08 01:52:00,
2013-12-07 20:57:00,42.9,40.7,28.89,NNE,27,0.0,0.0,92,0.00,,OVC009,0.01,VWS V14.01,2013-12-08 01:57:00,
2013-12-07 21:02:00,42.9,40.7,28.89,NNE,27,0.0,0.0,92,0.00,,OVC007,0.01,VWS V14.01,2013-12-08 02:02:00,
2013-12-07 21:07:00,42.9,40.7,28.88,NNE,27,0.0,0.0,92,0.00,,OVC007,0.01,VWS V14.01,2013-12-08 02:07:00,
2013-12-07 21:12:00,42.9,40.7,28.88,NNE,27,0.0,0.0,92,0.00,,OVC007,0.01,VWS V14.01,2013-12-08 02:12:00,
2013-12-07 21:17:00,42.9,41.0,28.88,NNE,27,0.0,0.0,93,0.00,,OVC007,0.01,VWS V14.01,2013-12-08 02:17:00,
2013-12-07 21:22:00,42.9,41.0,28.87,NNE,27,0.0,0.0,93,0.00,,OVC007,0.01,VWS V14.01,2013-12-08 02:22:00,
2013-12-07 21:27:00,43.1,41.5,28.87,NNE,27,0.0,0.0,94,0.00,,OVC007,0.01,VWS V14.01,2013-12-08 02:27:00,
2013-12-07 21:32:00,43.1,41.5,28.87,NNE,27,0.0,0.0,94,0.00,,OVC007,0.01,VWS V14.01,2013-12-08 02:32:00,
2013-12-07 21:37:00,43.1,41.8,28.88,NNE,27,0.0,0.0,95,0.00,,OVC007,0.01,VWS V14.01,2013-12-08 02:37:00,
2013-12-07 21:42:00,43.1,41.8,28.88,NNE,27,0.0,0.0,95,0.00,,OVC007,0.01,VWS V14.01,2013-12-08 02:42:00,
2013-12-07 21:47:00,43.1,42.0,28.88,NNE,27,0.0,0.0,96,0.00,,OVC007,0.01,VWS V14.01,2013-12-08 02:47:00,
2013-12-07 21:52:00,43.2,42.1,28.88,NNE,27,0.0,0.0,96,0.00,,OVC007,0.01,VWS V14.01,2013-12-08 02:52:00,
2013-12-07 21:57:00,43.2,42.1,28.88,NNE,27,0.0,0.0,96,0.00,,OVC007,0.01,VWS V14.01,2013-12-08 02:57:00,
2013-12-07 22:02:00,43.3,42.5,28.88,NNE,27,0.0,0.0,97,0.00,,,0.01,VWS V14.01,2013-12-08 03:02:00,
2013-12-07 22:07:00,43.3,42.5,28.89,NNE,27,0.0,0.0,97,0.00,,,0.01,VWS V14.01,2013-12-08 03:07:00,
2013-12-07 22:12:00,43.3,42.8,28.89,NNE,27,0.0,0.0,98,0.00,,,0.01,VWS V14.01,2013-12-08 03:12:00,
2013-12-07 22:17:00,43.2,42.7,28.89,NNE,27,0.0,0.0,98,0.00,,,0.01,VWS V14.01,2013-12-08 03:17:00,
2013-12-07 22:22:00,43.3,43.0,28.88,NNE,27,0.0,0.0,99,0.00,,,0.01,VWS V14.01,2013-12-08 03:22:00,
2013-12-07 22:27:00,43.5,43.2,28.88,NNE,27,0.0,0.0,99,0.00,,,0.01,VWS V14.01,2013-12-08 03:27:00,
2013-12-07 22:32:00,43.5,43.2,28.88,NNE,27,0.0,0.0,99,0.00,,,0.01,VWS V14.01,2013-12-08 03:32:00,
2013-12-07 22:37:00,43.6,43.3,28.88,NNE,27,0.0,0.0,99,0.00,,,0.01,VWS V14.01,2013-12-08 03:37:00,
2013-12-07 22:42:00,43.8,43.8,28.88,NNE,27,0.0,0.0,100,0.00,,,0.01,VWS V14.01,2013-12-08 03:42:00,
2013-12-07 22:47:00,44.2,44.2,28.88,NNE,27,0.0,0.0,100,0.00,,,0.01,VWS V14.01,2013-12-08 03:47:00,
2013-12-07 22:52:00,44.9,44.9,28.88,NNE,19,0.0,0.0,100,0.00,,,0.01,VWS V14.01,2013-12-08 03:52:00,
2013-12-07 22:57:00,45.4,45.4,28.88,NNE,19,0.0,0.0,100,0.00,,,0.01,VWS V14.01,2013-12-08 03:57:00,
2013-12-07 23:02:00,46.1,46.1,28.88,NNE,12,0.0,0.0,100,0.00,,,0.01,VWS V14.01,2013-12-08 04:02:00,
2013-12-07 23:07:00,47.0,47.0,28.87,NNE,14,0.0,0.0,100,0.00,,,0.01,VWS V14.01,2013-12-08 04:07:00,
2013-12-07 23:12:00,47.6,47.6,28.87,NNE,17,0.0,0.0,100,0.00,,,0.01,VWS V14.01,2013-12-08 04:12:00,
2013-12-07 23:17:00,48.0,48.0,28.87,NNE,14,0.0,0.0,100,0.00,,,0.01,VWS V14.01,2013-12-08 04:17:00,
2013-12-07 23:22:00,48.5,48.5,28.86,NNE,17,0.0,0.0,100,0.00,,,0.01,VWS V14.01,2013-12-08 04:22:00,
2013-12-07 23:27:00,48.6,48.6,28.86,NNE,13,0.0,0.0,100,0.00,,,0.01,VWS V14.01,2013-12-08 04:27:00,
2013-12-07 23:32:00,48.9,48.9,28.86,NNE,13,0.0,0.0,100,0.00,,,0.01,VWS V14.01,2013-12-08 04:32:00,
2013-12-07 23:37:00,49.1,49.1,28.86,NNE,13,0.0,0.0,100,0.00,,,0.01,VWS V14.01,2013-12-08 04:37:00,
2013-12-07 23:42:00,49.2,49.2,28.86,NNE,12,0.0,0.0,100,0.00,,,0.01,VWS V14.01,2013-12-08 04:42:00,
2013-12-07 23:47:00,49.1,49.1,28.86,NNE,12,0.0,0.0,100,0.00,,,0.01,VWS V14.01,2013-12-08 04:47:00,
2013-12-07 23:52:00,49.1,49.1,28.87,NNE,16,0.0,0.0,100,0.00,,,0.01,VWS V14.01,2013-12-08 04:52:00,
2013-12-07 23:57:00,49.1,48.8,28.87,NNE,13,0.0,0.0,99,0.00,,,0.01,VWS V14.01,2013-12-08 04:57:00,